{"data":{"norad_id":87300,"epoch":"2026-05-20T11:27:12.991680Z","epoch_age_seconds":455991,"freshness":"STALE","line1":"1 87300U          26140.47723370  .00000623  00000+0  45847-3 0  9995","line2":"2 87300 100.0935 144.1089 0023965 222.2237 137.7079 13.99968214635325","mean_motion":13.99968214,"eccentricity":0.0023965,"inclination_deg":100.0935,"raan_deg":144.1089,"arg_perigee_deg":222.2237,"mean_anomaly_deg":137.7079,"bstar":0.00045847,"rev_number":63532,"period_min":102.85947820812,"perigee_km":876.47776295678,"apogee_km":911.33266127946,"semimajor_km":7272.0422121181,"source":"CELESTRAK","updated_at":"2026-05-25T13:38:11.667503Z"}}